Location: Homewood
(41.1836°S, 175.9581°E)
Time: 04:00:55
(UTC+00:00)

SL-08 RB Rocket - Pass Details

Date: 18 April 2024
Orbit: 640 x 676 km, 97.8° (Epoch: 22 May)

Event Time Altitude Azimuth Distance (km) Brightness Sun altitude
Rises 16:38:14 0° 17° (NNE) 2,974 7.2 -25.5°
Reaches altitude 10° 16:40:27 10° 18° (NNE) 2,065 6.3 -25.1°
Maximum altitude 16:44:57 80° 104° (ESE) 673 3.7 -24.3°
Drops below altitude 10° 16:49:29 10° 190° (S) 2,076 6.2 -23.4°
Sets 16:51:43 0° 191° (S) 2,991 7.0 -23.0°
